SCP
0 0 0 0 0 0 0 0 0 0 0 0 0 0 0 0 0 0 0 0 0 0 0 0 0 0 0 0 0 0 0 0 0 0 0 0 0 0 0 0 0 0 0 0
0 0 0 0 0 0 0 0 0 0 0 0 0 0 0 0 0 0 0 0 0 0 0 0 0 0 0 0 0 0 0 0 0 0 0 0 0 0 0 0 0 0 0 0
0 0 0 0 0 0 0 0 0 0 0 0 0 0 0 0 0 0 0 0 0 0 0 0 0 0 0 0 0 0 0 0 0 0 0 0 0 0 0 0 0 0 0 0
0 0 0 0 0 0 0 0 0 0 0 0 0 0 0 0 0 0 0 0 0 0 0 0 0 0 0 0 0 0 0 0 0 0 0 0 0 0 0 0 0 0 0 0
0 0 0 0 0 0 0 0 0 0 0 0 0 0 0 0 0 0 0 0 0 0 0 0 0 0 0 0 0 0 0 0 0 0 0 0 0 0 0 0 0 0 0 0
0 0 -0 0 0 0 0 -0 -0 -0 0 0 0 0 0 0 0 -0 -0 0 0 0 0 0 0 0 0 0 0 0 0 0 0 0 0 0 0 0 0 0 0 0 0 0
0 0 0 0 0 0 0 -0 -0 -0 -0 0 0 0 0 0 0 0 -0 -0 0 0 0 0 0 0 0 0 0 0 0 0 0 0 0 0 0 0 0 0 0 0 0 0
0 0 0 0 0 0 0 -0 -0 -0 -0 0 0 0 0 0 0 0 -0 -0 -0 0 0 0 0 0 0 0 0 0 0 0 0 0 0 0 0 0 0 0 0 0 0 0
0 0 0 0 0 0 0 0 0 0 0 0 0 0 0 0 0 0 0 -0 0 0 0 0 0 0 0 0 0 0 0 0 0 0 0 0 0 0 0 0 0 0 0 0
0 0 0 0 0 0 0 0 0 0 0 0 0 0 0 0 0 0 0 0 0 0 0 0 0 0 0 0 0 0 0 0 0 0 0 0 0 0 0 0 0 0 0 0
0 0 0 0 0 0 0 0 0 0 0 0 0 0 0 0 0 0 0 0 0 0 0 0 0 0 0 0 0 0 0 0 0 0 0 0 0 0 0 0 0 0 0 0
0 0 0 0 0 0 0 0 0 0 0 0 0 0 0 0 0 0 0 0 0 0 0 0 0 0 0 0 0 0 0 0 0 0 0 0 0 0 0 0 0 0 0 0
0 0 0 0 0 0 0 0 0 0 0 0 0 0 0 0 0 0 0 0 0 0 0 0 0 0 0 0 0 0 0 0 0 0 0 0 0 0 0 0 0 0 0 0
0 0 0 0 0 0 0 0 0 0 0 0 0 0 0 0 0 0 0 0 0 0 0 0 0 0 0 0 0 0 0 0 0 0 0 0 0 0 0 0 0 0 0 0
0 0 0 0 0 0 0 0 0 0 0 0 0 0 0 0 0 0 0 0 0 0 0 0 0 0 0 0 0 0 0 0 0 0 0 0 0 0 0 0 0 0 0 0
0 0 0 0 0 0 0 0 0 0 0 0 0 0 0 0 0 0 0 0 0 0 0 0 0 0 0 0 0 0 0 0 0 0 0 0 0 0 0 0 0 0 0 0
0 0 0 0 0 0 0 0 0 0 0 0 0 0 0 0 0 0 0 0 0 0 0 0 0 0 0 0 0 0 0 0 0 0 0 0 0 0 0 0 0 0 0 0
0 0 0 0 0 0 0 0 0 0 0 0 0 0 0 0 0 0 0 0 0 0 0 0 0 0 0 0 0 0 0 0 0 0 0 0 0 0 0 0 0 0 0 0
0 0 0 0 0 0 0 0 0 0 0 0 0 0 0 0 0 0 0 0 0 0 0 0 0 0 0 0 0 0 0 0 0 0 0 0 0 0 0 0 0 0 0 0
0 0 0 0 0 0 -0 -0 0 0 0 0 0 0 0 0 0 0 0 0 0 0 0 0 0 0 0 0 0 0 0 0 0 0 0 0 0 0 0 0 0 0 0 0
0 0 0 0 0 0 -0 0 0 0 0 0 0 0 0 0 0 0 0 0 0 0 0 0 0 0 0 0 0 0 0 0 0 0 0 0 0 0 0 0 0 0 0 0
0 0 0 0 0 0 0 0 0 0 0 0 0 0 0 0 0 0 0 0 0 0 0 0 0 0 0 0 0 0 0 0 0 0 0 0 0 0 0 0 0 0 0 0
0 0 0 0 0 0 0 0 0 -0 0 0 0 0 0 0 0 0 0 0 0 0 0 0 0 0 0 0 0 0 0 0 0 0 0 0 0 0 0 0 0 0 0 0
0 0 0 0 0 0 0 0 -0 -0 -0 0 0 0 0 0 0 0 0 0 0 0 0 0 0 0 0 0 0 0 0 0 0 0 0 0 0 0 0 0 0 0 0 0
0 0 0 0 0 0 0 0 0 0 0 0 0 0 0 0 0 0 0 0 0 0 0 0 0 0 0 0 0 0 0 0 0 0 0 0 0 0 0 0 0 0 0 0
0 0 0 0 0 0 0 0 0 0 0 0 0 0 0 0 0 0 0 0 0 0 0 0 0 0 0 0 0 0 0 0 0 0 0 0 0 0 0 0 0 0 0 0
Wind_Speed
1 3 1 4 5 3 3 3 4 5 3 3 5 8 8 5 3 4 4 4 4 4 4 2 1 1 1 1 1 2 2 2 1 1 1 2 2 2 2 2 2 3 3 3
3 1 4 2 2 2 2 3 4 5 2 3 4 8 7 4 4 4 5 5 4 3 3 3 2 1 1 2 2 2 3 2 2 2 2 2 2 2 3 2 2 3 3 3
3 3 2 1 1 1 3 4 4 4 5 2 3 6 3 3 2 2 2 2 2 2 3 3 3 3 2 2 3 3 3 3 3 3 2 2 1 1 2 2 2 3 3 3
1 3 1 0 1 1 4 4 4 3 1 3 0 5 6 3 3 2 3 2 2 2 2 2 2 3 3 3 3 3 3 3 2 2 2 3 2 3 3 2 2 3 3 3
1 2 1 1 2 1 3 3 2 1 1 3 1 3 8 2 3 4 3 3 2 2 2 2 3 3 4 4 3 3 3 3 2 3 3 3 3 3 2 2 2 2 2 3
1 2 1 2 2 1 2 3 3 3 2 3 4 4 7 3 4 3 3 2 3 2 2 2 3 3 3 4 4 3 3 4 3 2 2 3 3 3 2 2 2 2 2 2
4 3 2 1 2 3 3 4 4 5 2 6 2 3 8 4 3 3 3 3 3 2 2 2 3 4 4 5 5 4 4 4 3 3 3 3 4 3 3 3 3 2 1 1
1 4 3 2 1 1 0 4 5 3 4 5 3 5 7 3 2 1 1 1 2 3 3 2 3 4 4 5 5 4 5 5 3 3 3 3 3 2 2 2 2 3 2 2
2 4 3 2 1 2 1 1 3 4 1 4 6 6 6 2 2 2 2 2 3 4 4 4 4 4 4 5 5 5 4 5 4 4 4 3 3 3 3 2 2 2 2 2
3 3 4 3 1 1 1 3 3 3 1 4 6 5 5 5 4 3 3 3 4 4 5 5 4 5 5 4 4 4 3 4 4 3 3 3 3 3 3 2 2 2 2 2
2 2 4 2 1 3 1 1 2 2 3 3 4 7 3 4 4 3 3 3 3 4 5 5 5 6 5 5 4 3 3 4 3 3 2 2 2 2 2 2 2 2 2 2
2 3 3 5 3 1 3 4 4 3 4 3 3 8 3 2 2 2 2 3 4 4 4 4 5 6 5 5 4 3 3 3 3 3 2 1 1 1 1 1 1 1 1 2
3 4 1 4 3 2 1 2 3 3 2 3 4 9 3 3 3 3 3 4 4 4 5 5 5 5 5 5 4 4 3 3 3 3 2 1 1 1 1 1 1 1 1 1
4 3 5 7 5 3 4 4 3 4 4 5 9 10 8 7 7 6 5 5 5 4 4 5 5 5 5 5 5 4 4 3 4 3 2 2 2 1 1 1 0 1 1 1
3 3 4 6 5 4 6 7 6 8 8 8 9 9 11 8 7 6 5 5 5 4 5 5 5 5 5 5 5 4 4 3 3 3 3 3 2 2 2 1 1 1 1 1
2 2 1 4 4 5 8 10 9 9 9 10 10 13 9 6 4 4 5 5 5 5 5 5 5 5 5 5 5 4 4 3 3 3 3 3 3 3 2 2 2 2 1 1
2 3 1 4 4 4 8 9 9 7 7 7 10 11 6 5 6 5 5 4 5 5 5 5 5 5 5 4 4 4 3 3 2 3 3 3 3 3 3 3 2 2 2 1
5 4 2 2 2 6 8 3 6 6 6 7 7 6 5 6 5 5 4 3 4 4 4 4 4 5 4 4 3 3 2 2 3 3 3 2 3 3 3 3 3 2 2 2
4 5 3 2 3 9 8 3 4 5 7 6 7 6 6 5 3 4 2 2 3 4 4 4 4 4 4 3 3 2 2 2 2 3 3 2 2 2 3 3 3 3 2 3
2 3 3 3 3 7 6 1 1 3 6 4 4 5 4 2 3 5 3 3 4 4 3 3 3 3 3 3 2 2 2 2 3 3 3 2 1 2 2 3 3 3 2 2
2 2 4 5 6 10 5 1 3 3 6 2 3 4 3 4 5 5 4 4 3 3 3 3 3 3 2 3 2 2 2 2 3 3 2 2 2 2 1 2 2 2 2 3
8 6 6 5 6 10 3 4 6 7 2 2 3 3 4 5 4 4 4 3 3 3 4 3 3 3 3 2 1 2 2 3 3 3 2 2 2 2 2 2 2 2 2 2
8 9 7 10 10 5 4 6 5 2 3 3 3 3 3 4 4 4 3 3 3 3 3 3 2 3 3 2 1 1 3 3 2 3 3 2 2 2 2 2 2 2 2 2
5 3 4 6 9 6 5 5 3 3 3 3 3 3 3 4 4 4 3 3 3 3 3 3 2 2 3 3 2 2 2 2 2 2 2 2 2 2 2 2 2 2 2 1
6 6 4 7 7 5 5 5 4 3 3 3 3 3 3 3 4 4 3 3 3 3 2 2 2 2 3 3 3 3 2 1 2 2 2 2 2 2 2 2 2 3 2 2
6 8 8 8 7 5 5 4 3 3 4 3 3 3 3 3 4 3 3 3 3 2 2 2 2 2 2 2 3 2 2 1 1 1 2 2 2 2 2 2 3 5 4 6
Wind_Direction
48 79 181 225 213 212 204 226 260 265 286 296 254 267 276 277 259 246 251 253 252 255 262 276 293 276 269 295 289 267 270 265 269 266 262 266 261 256 251 242 242 243 233 220
53 256 250 244 234 232 229 251 273 290 304 288 278 281 276 255 241 230 233 244 247 281 312 312 318 313 270 262 269 274 277 267 249 244 239 239 244 244 239 241 249 242 226 214
165 249 268 206 311 272 253 228 243 271 321 315 314 300 272 273 247 268 260 248 266 274 285 302 320 316 294 277 268 272 275 272 261 263 268 274 285 287 263 253 246 239 224 218
254 291 289 174 258 232 265 244 247 262 324 290 16 289 276 266 284 292 296 303 300 305 301 300 312 317 306 284 278 273 275 279 275 253 245 229 237 252 257 251 250 249 222 219
284 330 352 275 270 239 247 287 281 259 206 291 253 230 280 297 285 291 297 296 294 292 298 302 308 301 307 305 289 276 280 278 271 250 239 237 241 252 267 270 267 250 231 219
284 316 324 275 289 240 290 16 31 52 76 274 226 195 274 252 251 275 289 302 303 308 308 313 323 322 317 319 317 293 278 270 267 259 251 246 251 255 266 265 262 252 234 226
335 326 338 352 357 4 47 70 23 359 351 258 249 211 252 258 254 226 241 267 297 316 327 325 329 323 317 318 316 312 284 272 269 261 254 251 248 240 245 248 258 260 242 244
337 299 305 332 196 223 235 133 151 210 249 286 298 246 260 274 299 277 228 259 327 337 338 320 310 308 309 311 306 303 295 273 264 261 258 252 250 236 243 247 258 250 243 233
184 267 303 301 301 151 139 175 168 144 259 278 276 286 301 310 338 8 16 9 343 333 331 323 316 312 305 300 297 292 296 291 280 269 256 244 242 244 252 256 254 248 251 250
162 261 294 315 19 2 139 140 98 128 191 273 288 277 272 295 298 322 337 333 324 328 330 329 325 318 309 303 302 300 293 292 281 276 254 263 242 244 242 239 239 237 244 247
136 188 301 338 202 213 146 125 134 151 179 197 276 273 246 253 258 268 285 303 310 317 323 328 326 320 318 321 317 313 310 312 303 288 278 272 255 242 237 244 246 220 220 226
149 134 262 263 268 261 189 184 157 170 237 214 238 271 285 288 282 278 289 304 309 310 317 323 325 327 328 327 323 314 312 315 309 291 292 294 279 232 228 243 253 232 224 231
138 123 4 334 323 336 264 213 181 160 158 203 223 265 306 355 345 324 306 304 307 314 320 328 335 334 329 327 327 320 319 322 324 323 328 339 344 311 275 268 263 254 243 230
118 153 188 213 231 215 254 248 207 171 199 232 236 262 290 309 307 308 306 300 299 301 314 330 333 329 328 327 327 328 332 337 339 342 344 354 351 337 299 282 265 283 277 247
115 205 238 256 263 247 250 250 229 218 219 227 250 256 270 275 275 283 288 296 303 307 319 325 325 324 326 331 333 335 337 344 345 347 351 350 350 353 350 356 3 329 307 314
118 194 269 281 267 266 269 256 240 238 236 244 264 271 269 273 277 283 288 290 292 299 309 315 318 321 322 327 329 333 338 342 347 346 342 347 356 4 5 359 16 10 342 314
155 150 177 271 309 326 272 240 214 217 218 212 240 256 287 289 281 276 281 283 280 291 303 306 307 311 310 313 318 323 326 337 351 349 346 349 1 8 4 353 14 12 349 340
158 154 178 270 10 249 249 231 197 212 243 231 247 268 275 270 277 279 269 269 286 295 299 301 305 311 311 313 320 325 335 352 355 348 346 352 9 11 1 356 7 355 346 343
165 157 164 179 251 275 285 250 180 198 261 233 238 265 283 299 311 285 269 285 279 286 288 292 297 305 308 309 316 335 345 357 355 346 345 353 5 11 356 359 355 346 353 348
123 144 160 179 221 248 256 252 154 117 277 249 218 250 273 321 297 277 294 313 310 313 307 310 315 316 312 310 323 344 346 1 348 339 334 334 357 19 358 352 347 348 352 345
161 177 195 203 235 262 255 201 125 180 255 262 217 232 231 224 237 270 298 307 307 308 311 320 320 317 310 316 332 344 351 347 332 333 339 356 6 9 357 1 350 351 352 353
181 181 196 180 215 253 205 149 191 226 258 242 230 228 237 252 274 285 288 294 306 313 319 326 327 325 329 336 352 347 341 330 337 348 357 3 2 358 4 13 356 359 358 360
203 195 191 198 219 244 192 207 231 223 238 244 233 247 242 258 270 284 287 289 296 299 307 320 325 329 340 340 354 337 321 334 349 1 1 360 0 3 0 6 360 356 355 353
239 191 198 247 258 252 248 250 258 227 229 243 241 246 235 248 264 279 283 292 297 295 300 317 329 335 336 338 343 319 314 336 0 3 356 355 4 4 5 357 353 346 335 338
218 179 208 250 267 288 262 234 238 240 238 248 255 242 241 247 262 263 273 279 283 292 299 306 304 304 309 322 330 326 325 346 360 352 353 354 357 358 359 356 349 338 327 329
196 186 192 227 222 209 248 241 217 221 242 247 257 277 264 238 249 259 265 264 265 272 287 301 298 296 303 319 321 322 327 341 8 358 357 350 350 351 355 358 0 4 359 0